When you browse on this site, cookies collect data to enhance your experience and personalize the content and advertising you see.
Visit our Privacy Policy to learn more. By continuing to use the site, you agree to this use of cookies and data.
  • In United Kingdom
  • List of Countries
  • For 7 days
  • Water Temperature
  • Weather Map
  • Weather Widgets
  • user-avatar
    Login

    Hourly Weather Pykulovychi

    Today, 22 September, Sunday

    Time Temperature Precipitation Wind Pressure Humidity
    00:00 +8°C° 0 mm 3 mps 745 mmHg 74%
    01:00 +8°C° 0 mm 3 mps 745 mmHg 72%
    02:00 +8°C° 0 mm 3 mps 744 mmHg 70%
    03:00 +8°C° 0 mm 3 mps 744 mmHg 70%
    04:00 +8°C° 0 mm 3 mps 744 mmHg 69%
    05:00 +7°C° 0 mm 3 mps 744 mmHg 69%
    06:00 +9°C° 0 mm 3 mps 744 mmHg 67%
    07:00 +10°C° 0 mm 4 mps 744 mmHg 65%
    08:00 +11°C° 0 mm 4 mps 744 mmHg 63%
    09:00 +13°C° 0 mm 4 mps 744 mmHg 60%
    10:00 +15°C° 0 mm 4 mps 744 mmHg 56%
    11:00 +18°C° 0 mm 4 mps 743 mmHg 52%
    12:00 +19°C° 0 mm 4 mps 743 mmHg 51%
    13:00 +20°C° 0 mm 4 mps 743 mmHg 49%
    14:00 +20°C° 0 mm 4 mps 743 mmHg 48%
    15:00 +20°C° 0 mm 3 mps 742 mmHg 51%
    16:00 +20°C° 0 mm 2 mps 742 mmHg 55%
    17:00 +19°C° 0 mm 2 mps 741 mmHg 58%
    18:00 +17°C° 0 mm 2 mps 741 mmHg 64%
    19:00 +15°C° 0 mm 1 mps 741 mmHg 69%
    20:00 +13°C° 0 mm 1 mps 741 mmHg 75%
    21:00 +12°C° 0 mm 1 mps 741 mmHg 76%
    22:00 +12°C° 0 mm 1 mps 741 mmHg 77%
    23:00 +11°C° 0 mm 1 mps 741 mmHg 77%

    Tomorrow, 23 September, Monday

    Time Temperature Precipitation Wind Pressure Humidity
    00:00 +11°C° 0 mm 1 mps 741 mmHg 78%
    01:00 +10°C° 0 mm 0 mps 741 mmHg 78%
    02:00 +9°C° 0 mm 0 mps 741 mmHg 79%
    03:00 +9°C° 0 mm 0 mps 741 mmHg 79%
    04:00 +9°C° 0 mm 0 mps 741 mmHg 80%
    05:00 +9°C° 0 mm 1 mps 741 mmHg 80%
    06:00 +11°C° 0 mm 1 mps 741 mmHg 76%
    07:00 +12°C° 0 mm 1 mps 741 mmHg 72%
    08:00 +13°C° 0 mm 1 mps 741 mmHg 69%
    09:00 +15°C° 0 mm 1 mps 741 mmHg 63%
    10:00 +17°C° 0 mm 2 mps 741 mmHg 58%
    11:00 +19°C° 0 mm 2 mps 741 mmHg 53%
    12:00 +20°C° 0 mm 2 mps 741 mmHg 50%
    13:00 +21°C° 0 mm 2 mps 740 mmHg 48%
    14:00 +23°C° 0 mm 2 mps 740 mmHg 45%
    15:00 +21°C° 0 mm 2 mps 740 mmHg 49%
    16:00 +21°C° 0 mm 2 mps 740 mmHg 52%
    17:00 +20°C° 0 mm 2 mps 739 mmHg 56%
    18:00 +18°C° 0 mm 2 mps 740 mmHg 65%
    19:00 +16°C° 0 mm 3 mps 740 mmHg 73%
    20:00 +13°C° 0 mm 3 mps 740 mmHg 82%
    21:00 +12°C° 0 mm 3 mps 740 mmHg 85%
    22:00 +12°C° 0 mm 2 mps 740 mmHg 88%
    23:00 +12°C° 0 mm 2 mps 740 mmHg 91%

    Day after tomorrow, 24 September, Tuesday

    Time Temperature Precipitation Wind Pressure Humidity
    00:00 +10°C° 0 mm 2 mps 740 mmHg 92%
    01:00 +10°C° 0 mm 2 mps 740 mmHg 93%
    02:00 +9°C° 0 mm 2 mps 740 mmHg 93%
    03:00 +9°C° 0 mm 2 mps 740 mmHg 93%
    04:00 +10°C° 0 mm 1 mps 740 mmHg 93%
    05:00 +10°C° 0 mm 1 mps 740 mmHg 93%
    06:00 +10°C° 0 mm 1 mps 740 mmHg 90%
    07:00 +11°C° 0 mm 1 mps 739 mmHg 86%
    08:00 +12°C° 0 mm 1 mps 739 mmHg 83%
    09:00 +15°C° 0 mm 2 mps 739 mmHg 74%
    10:00 +17°C° 0 mm 2 mps 739 mmHg 66%
    11:00 +19°C° 0 mm 2 mps 739 mmHg 58%
    12:00 +20°C° 0 mm 2 mps 739 mmHg 54%
    13:00 +21°C° 0 mm 3 mps 739 mmHg 51%
    14:00 +22°C° 0 mm 3 mps 738 mmHg 47%
    15:00 +22°C° 0 mm 3 mps 738 mmHg 51%
    16:00 +21°C° 0 mm 2 mps 738 mmHg 54%
    17:00 +20°C° 0 mm 2 mps 737 mmHg 58%
    18:00 +18°C° 0 mm 2 mps 737 mmHg 62%
    19:00 +16°C° 0 mm 2 mps 737 mmHg 67%
    20:00 +13°C° 0 mm 3 mps 737 mmHg 72%
    21:00 +13°C° 0 mm 3 mps 737 mmHg 73%
    22:00 +12°C° 0 mm 3 mps 737 mmHg 74%
    23:00 +12°C° 0 mm 2 mps 737 mmHg 76%

    25 September, Wednesday

    Time Temperature Precipitation Wind Pressure Humidity
    00:00 +11°C° 0 mm 3 mps 737 mmHg 76%
    01:00 +11°C° 0 mm 3 mps 737 mmHg 77%
    02:00 +11°C° 0 mm 3 mps 736 mmHg 77%
    03:00 +11°C° 0 mm 3 mps 736 mmHg 78%
    04:00 +11°C° 0 mm 3 mps 736 mmHg 78%
    05:00 +11°C° 0 mm 3 mps 736 mmHg 79%
    06:00 +12°C° 0 mm 3 mps 736 mmHg 78%
    07:00 +13°C° 0 mm 4 mps 736 mmHg 78%
    08:00 +13°C° 0 mm 4 mps 736 mmHg 77%
    09:00 +14°C° 0 mm 3 mps 736 mmHg 73%
    10:00 +17°C° 0 mm 3 mps 736 mmHg 70%
    11:00 +18°C° 0 mm 3 mps 736 mmHg 66%
    12:00 +18°C° 0 mm 2 mps 736 mmHg 66%
    13:00 +18°C° 0 mm 2 mps 736 mmHg 66%
    14:00 +18°C° 0 mm 2 mps 735 mmHg 66%
    15:00 +17°C° 0.1 mm 2 mps 735 mmHg 71%
    16:00 +16°C° 0.1 mm 2 mps 735 mmHg 76%
    17:00 +15°C° 0.1 mm 2 mps 735 mmHg 82%
    18:00 +15°C° 0 mm 2 mps 735 mmHg 84%
    19:00 +14°C° 0 mm 3 mps 735 mmHg 86%
    20:00 +13°C° 0 mm 3 mps 735 mmHg 89%
    21:00 +13°C° 0.1 mm 3 mps 735 mmHg 89%
    22:00 +13°C° 0.1 mm 3 mps 735 mmHg 90%
    23:00 +13°C° 0.1 mm 3 mps 735 mmHg 90%

    26 September, Thursday

    Time Temperature Precipitation Wind Pressure Humidity
    00:00 +13°C° 0.1 mm 4 mps 735 mmHg 91%
    01:00 +13°C° 0.1 mm 4 mps 735 mmHg 91%
    02:00 +13°C° 0.1 mm 4 mps 735 mmHg 92%
    03:00 +13°C° 0.2 mm 4 mps 735 mmHg 92%
    04:00 +13°C° 0.2 mm 4 mps 736 mmHg 91%
    05:00 +13°C° 0.2 mm 4 mps 736 mmHg 91%
    06:00 +13°C° 0.1 mm 4 mps 736 mmHg 90%
    07:00 +13°C° 0.1 mm 4 mps 736 mmHg 88%
    08:00 +13°C° 0.1 mm 4 mps 736 mmHg 87%
    09:00 +14°C° 0 mm 5 mps 737 mmHg 80%
    10:00 +15°C° 0 mm 5 mps 737 mmHg 73%
    11:00 +16°C° 0 mm 5 mps 738 mmHg 66%
    12:00 +17°C° 0 mm 5 mps 738 mmHg 62%
    13:00 +17°C° 0 mm 6 mps 737 mmHg 58%
    14:00 +19°C° 0 mm 6 mps 737 mmHg 54%
    15:00 +17°C° 0.1 mm 5 mps 737 mmHg 57%
    16:00 +18°C° 0.1 mm 4 mps 737 mmHg 61%
    17:00 +17°C° 0.1 mm 4 mps 737 mmHg 64%
    18:00 +16°C° 0 mm 3 mps 738 mmHg 70%
    19:00 +13°C° 0 mm 3 mps 738 mmHg 77%
    20:00 +13°C° 0 mm 2 mps 738 mmHg 84%
    21:00 +11°C° 0 mm 3 mps 738 mmHg 86%
    22:00 +11°C° 0 mm 3 mps 739 mmHg 88%
    23:00 +11°C° 0 mm 4 mps 739 mmHg 90%

    27 September, Friday

    Time Temperature Precipitation Wind Pressure Humidity
    00:00 +10°C° 0 mm 4 mps 739 mmHg 91%
    01:00 +10°C° 0 mm 3 mps 739 mmHg 93%
    02:00 +10°C° 0 mm 3 mps 739 mmHg 94%
    03:00 +10°C° 0 mm 3 mps 739 mmHg 93%
    04:00 +11°C° 0 mm 3 mps 739 mmHg 91%
    05:00 +11°C° 0 mm 3 mps 739 mmHg 89%
    06:00 +12°C° 0.1 mm 3 mps 739 mmHg 88%
    07:00 +12°C° 0.1 mm 3 mps 739 mmHg 86%
    08:00 +13°C° 0.1 mm 3 mps 740 mmHg 85%
    09:00 +14°C° 0 mm 4 mps 740 mmHg 78%
    10:00 +17°C° 0 mm 4 mps 740 mmHg 71%
    11:00 +19°C° 0 mm 5 mps 740 mmHg 64%
    12:00 +18°C° 0 mm 4 mps 740 mmHg 65%
    13:00 +18°C° 0 mm 4 mps 740 mmHg 67%
    14:00 +17°C° 0 mm 4 mps 740 mmHg 68%
    15:00 +17°C° 0.1 mm 3 mps 740 mmHg 72%
    16:00 +16°C° 0.1 mm 3 mps 740 mmHg 76%
    17:00 +15°C° 0.1 mm 2 mps 740 mmHg 80%
    18:00 +15°C° 0 mm 1 mps 740 mmHg 81%
    19:00 +15°C° 0 mm 1 mps 740 mmHg 82%
    20:00 +14°C° 0 mm 1 mps 740 mmHg 83%
    21:00 +14°C° 0 mm 1 mps 740 mmHg 84%
    22:00 +14°C° 0 mm 1 mps 741 mmHg 85%
    23:00 +14°C° 0 mm 1 mps 741 mmHg 86%
    Show more